Location: St. Louis
(38.6270°N, 90.1994°W)
Time: 08:23:47
(UTC-06:00)

SR - Pass Details

Date: 06 December 2021
Orbit: 582 x 872 km, 66.7° (Epoch: 21 January)

Event Time Altitude Azimuth Distance (km) Brightness Sun altitude
Rises 08:56:03 0° 314° (NW) 2,855 ? 16.2°
Reaches altitude 10° 08:58:43 10° 298° (WNW) 1,980 ? 16.6°
Maximum altitude 09:01:58 20° 251° (WSW) 1,471 ? 17.0°
Drops below altitude 10° 09:05:21 10° 204° (SSW) 2,077 ? 17.4°
Sets 09:08:14 0° 188° (S) 3,042 ? 17.8°
